Powrót do katalogu

NOAA 16 DEB

AktywnySSO
NORAD 41077·DEBRIS·🇺🇸 United States

Wystrzelony Sep 21, 2000 z Vandenberg Space Force Base

Loading…

Następne Przeloty (najbliższe 24 godziny)

TLE

ŚwieżeSource: Space-Track

Epoka: Sep 14, 2026, 06:49 UTC

1 41077U 00055AL  26257.28412169  .00000256  00000-0  21471-3 0  9995
2 41077  98.8078 264.8035 0111892 301.4515  57.5747 13.93983500548654

Śledź NOAA 16 DEB w czasie rzeczywistym z AllMySat

Download on the App Store